COSMOS 1163

Satellite information

Favourite Embed

Satellite Type and Status

PAYLOADIN ORBIT

Key statistics

Satellite COSMOS 1163 at a glance.

Uptime

16526

Days in orbit

Revolutions

≈ 12.4

Per day

Orbit

LEO

Low Earth Orbit

Inclination

74.0

Latest

Satellite identification and parameters

Extended collection of information and parameters for COSMOS 1163.

Object identification

Identified? True

Debris? False

Object name: COSMOS 1163

International designator: 1980-012H

Object number (NORAD): 11698

Object ID (CCSDS): 11698

Country: COMMONWEALTH OF INDEPENDENT STATES (CIS)

Current information (Y/N): Y

RCS size: MEDIUM

Orbital parameters

Period: 116.134 minutes

Inclination: 74.0205 deg

SMA: 7884.982 km

Apoapsis: 1542.648 km

Periapsis: 1471.046 km

RAAN: 185.4325 deg

Eccentricy: 0.0045404

Argument of periapsis: 14.6466 deg

Mean anomaly: 99.2633 deg

Mean motion: 12.39943049 rev/day

Mean motion (dot): 0.00000014 rev/day2

B* drag term: 0.00022207 1/REarth

Two-line elements (TLE)

Creation date: May 11, 2025, 2:40 a.m.

Reference frame: TEME

Reference center: EARTH

Epoch: May 10, 2025, 2:22 p.m. UTC

TLE line 0: 0 COSMOS 1163

TLE line 1: 1 11698U 80012H 25130.59888647 .00000014 00000-0 22207-3 0 9993

TLE line 2: 2 11698 74.0205 185.4325 0045404 14.6466 99.2633 12.39943049 47497

Live tracking on map

Real-time ground track for satellite COSMOS 1163.

In-orbit conjunctions

There are no conjunctions computed for COSMOS 1163, at the moment. Check back to stay up to date, as we update our databases every day.

Go to all conjunctions

Associated space launch

Military communications satellites

COSMOS 1163 was lifted into orbit during the mission ‘Kosmos-3M | Strela-1M 185-192’, on board a Kosmos-3M space rocket.

The launch took place on Feb. 11, 1980, 11:32 p.m. from 132/2.

For more information about the launch, click the button.

Launch to space Kosmos-3M | Strela-1M 185-192
Kosmos-3M | Strela-1M 185-192

Agency: N/A

Status: Launch Successful

Launch date: Feb. 11, 1980, 11:32 p.m. UTC

Rocket: Kosmos-3M

Launch pad: 132/2

Location: Plesetsk Cosmodrome, Russian Federation

...

Latest news about this satellite

There are no fresh news available about this satellite. Check back as we update our databases every day.


Newsletter sign-up

Weekly statistics, charts and insights to help you stay on top of the space industry.